{"data":{"norad_id":69362,"epoch":"2026-09-19T23:07:31.382688Z","epoch_age_seconds":75308,"freshness":"FRESH","line1":"1 69362U 26123K   26262.96355767  .00013569  00000+0  41205-3 0  9994","line2":"2 69362  53.1562 144.5074 0001171  92.4959 267.6178 15.34395822 16784","mean_motion":15.34395822,"eccentricity":0.0001171,"inclination_deg":53.1562,"raan_deg":144.5074,"arg_perigee_deg":92.4959,"mean_anomaly_deg":267.6178,"bstar":0.00041205,"rev_number":1678,"period_min":93.848013619005,"perigee_km":461.91459428549,"apogee_km":463.51672197802,"semimajor_km":6840.8526581318,"source":"CELESTRAK","updated_at":"2026-09-20T09:00:44.166075Z"}}